Click image to view full size
Surface Map OKC RADAR IR Satellite Visible Satellite
Pacific Hurricane Sector Atlantic Hurricane Sector

State weather roundup 1000 PM CST FRI DEC 15 2017 SKY/WX TMP DP RH WIND PRES REMARKS NORTHWEST OKLAHOMA AND THE PANHANDLE GAGE CLEAR 41 23 48 S14 29.99R WCI 33 GUYMON CLOUDY 33 18 53 S8 29.94F WCI 26 ENID/WOODRING CLEAR 32 27 80 CALM 30.02S SOUTHWEST OKLAHOMA LAWTON/REGL CLEAR 38 23 55 S10 30.12S WCI 31 LAWTON/FT SILL CLEAR 40 25 55 S10 30.09F WCI 33 FREDERICK CLEAR 39 23 52 S9 30.09S WCI 33 CLINTON CLEAR 38 22 52 S20 30.04F WCI 28 HOBART CLEAR 42 24 49 S17 30.08S WCI 34 ALTUS AFB CLEAR 35 21 57 S8 30.09F WCI 28 CENTRAL OKLAHOMA OKC/WILEY POST CLEAR 43 23 45 S17 30.08S OKC/TINKER AFB CLEAR 36 22 55 S13 30.08F WCI 28 STILLWATER CLEAR 39 23 52 S8 30.05F WCI 33 GUTHRIE CLEAR 39 23 52 S10 30.06F WCI 32 NORTHEAST OKLAHOMA TULSA CLEAR 42 22 44 S13 30.10S TULSA/JONES CLEAR 40 22 48 S8 30.10F WCI 34 BARTLESVILLE CLEAR 32 22 66 CALM 30.09S MUSKOGEE CLOUDY 30 24 78 S6 30.15S WCI 24 SOUTH CENTRAL/SOUTHEAST OKLAHOMA ARDMORE/DWNTWN CLEAR 37 19 48 CALM 30.17S MCALESTER CLEAR 34 23 64 S6 30.16F WCI 29
McAlester conditions for the last 24 hours SKY/WX TMP DP RH WIND PRES REMARKS 1100 PM CST THU DEC 14 2017 MOCLDY 28 25 88 S3 30.19R 1200 AM CST FRI DEC 15 2017 CLEAR 28 24 85 SW3 30.20R 100 AM CST FRI DEC 15 2017 CLEAR 28 24 85 S3 30.20S 200 AM CST FRI DEC 15 2017 PTCLDY 27 23 85 CALM 30.20S 300 AM CST FRI DEC 15 2017 PTCLDY 27 23 85 S5 30.20S WCI 22 400 AM CST FRI DEC 15 2017 CLEAR 26 23 88 CALM 30.21R 500 AM CST FRI DEC 15 2017 PTCLDY 26 23 88 W5 30.21S WCI 20 600 AM CST FRI DEC 15 2017 PTCLDY 34 30 85 NW9 30.23R WCI 27 700 AM CST FRI DEC 15 2017 PTCLDY 32 29 88 CALM 30.25R 800 AM CST FRI DEC 15 2017 MOCLDY 35 31 85 NW8 30.26R WCI 29 900 AM CST FRI DEC 15 2017 SUNNY 38 33 82 NW7 30.27R WCI 33 1000 AM CST FRI DEC 15 2017 MOSUNNY 42 34 73 NW6 30.29R 1100 AM CST FRI DEC 15 2017 SUNNY 46 34 62 NW7 30.28F 1200 PM CST FRI DEC 15 2017 MOSUNNY 47 32 56 CALM 30.25F 100 PM CST FRI DEC 15 2017 MOSUNNY 49 30 48 VRB5 30.23F 200 PM CST FRI DEC 15 2017 SUNNY 52 28 39 NW10 30.21F 300 PM CST FRI DEC 15 2017 SUNNY 52 26 36 W8 30.20F 400 PM CST FRI DEC 15 2017 SUNNY 52 25 35 W7 30.18F 500 PM CST FRI DEC 15 2017 PTCLDY 49 25 39 W3 30.17F 600 PM CST FRI DEC 15 2017 CLEAR 39 25 57 S3 30.17S 700 PM CST FRI DEC 15 2017 PTCLDY 34 25 69 CALM 30.18R 800 PM CST FRI DEC 15 2017 CLEAR 31 24 75 S3 30.18S 900 PM CST FRI DEC 15 2017 CLEAR 32 23 69 SW3 30.17F 1000 PM CST FRI DEC 15 2017 CLEAR 34 23 64 S6 30.16F WCI 29
Zone forecast package for the McAlester area Pittsburg- Including the city of McAlester 938 PM CST Fri Dec 15 2017 .REST OF TONIGHT...Clear. Lows around 30. South winds up to 10 mph. .SATURDAY...Partly cloudy until late afternoon then becoming mostly cloudy. Highs in the lower 60s. South winds 10 to 15 mph. .SATURDAY NIGHT...Chance of rain showers in the evening, then light rain after midnight. Lows in the mid 40s. South winds 10 to 15 mph. Chance of precipitation 80 percent. .SUNDAY...Mostly cloudy in the morning then becoming partly cloudy. Highs in the upper 50s. South winds around 10 mph. .SUNDAY NIGHT...Partly cloudy. Lows in the lower 40s. Light winds. .MONDAY...Partly cloudy. Highs in the lower 60s. .MONDAY NIGHT...Partly cloudy. Lows in the mid 40s. .TUESDAY...Mostly sunny. Highs in the lower 60s. .TUESDAY NIGHT...Mostly clear. Lows in the upper 30s. .WEDNESDAY...Mostly sunny. Highs in the lower 60s. .WEDNESDAY NIGHT...Clear. Lows in the mid 40s. .THURSDAY...Mostly sunny. Highs in the mid 60s. .THURSDAY NIGHT...Partly cloudy. Lows in the upper 20s. .FRIDAY...Partly cloudy. Highs around 40.
Forecast Discussion AFDTSA Area Forecast Discussion National Weather Service Tulsa OK 934 PM CST Fri Dec 15 2017 ...UPDATE... .DISCUSSION... Temps have fallen off quickly from far SE OK through western AR especially in typically colder valley locations. Updated forecast will lower mins a few degrees through this zone otherwise forecast is on track. && .PRELIMINARY POINT TEMPS/POPS... TUL 35 62 44 54 / 0 0 80 20 FSM 29 62 42 55 / 0 0 80 20 MLC 29 62 44 57 / 0 0 80 10 BVO 29 63 42 54 / 0 0 80 20 FYV 25 58 40 51 / 0 0 80 30 BYV 29 59 40 52 / 0 0 90 30 MKO 31 62 43 54 / 0 0 80 20 MIO 33 61 43 53 / 0 0 80 30 F10 33 61 44 54 / 0 0 80 10 HHW 30 59 42 57 / 0 0 80 10 && .TSA WATCHES/WARNINGS/ADVISORIES... OK...None. AR...None. &&
Bookmarks